Simultaneous Nadir Overpasses (SNOs) Predictions

Prediction of SNOs between GOES-15 and METOP-B Satellite Orbit:

Table of predicted SNOs for the next 14.0 days since TLE Epoch: 2/8/2025
Index Date Time (GOES-15) GOES-15 Lat,Lon METOP-B Lat,Lon Distance(km) Time Diff (sec)
1 02/08/2025 05:17:29 -0.00, 61.56 0.64, 58.57 340.09 80
2 02/09/2025 04:59:33 0.00, 61.55 -0.47, 63.54 227.62 80
3 02/10/2025 17:18:40 0.00, 61.52 -0.56, 58.90 298.53 80
4 02/11/2025 16:55:23 -0.00, 61.52 0.49, 63.88 268.40 80
5 02/13/2025 05:14:22 0.00, 61.52 0.49, 59.27 256.11 80
6 02/14/2025 04:56:26 0.01, 61.50 -0.62, 64.24 311.79 80
7 02/15/2025 17:15:31 -0.00, 61.47 -0.44, 59.61 213.33 80
8 02/16/2025 16:52:16 -0.01, 61.47 0.68, 64.57 353.56 80
9 02/18/2025 05:11:13 0.00, 61.48 0.36, 59.97 172.33 80
10 02/19/2025 04:53:18 0.00, 61.47 -0.77, 64.94 395.05 80
11 02/20/2025 17:12:24 0.00, 61.44 -0.22, 60.29 130.19 80
12 02/21/2025 16:49:08 -0.00, 61.45 0.85, 65.27 435.94 80
